Year,Month,Day,Hour,Minute,Value (Times are PST for temperature in C)
2015,02,26,00,00,7.40
2015,02,26,00,01,7.40
2015,02,26,00,02,7.40
2015,02,26,00,03,7.40
2015,02,26,00,04,7.40
2015,02,26,00,05,7.40
2015,02,26,00,06,7.40
2015,02,26,00,07,7.40
2015,02,26,00,08,7.40
2015,02,26,00,09,7.40
2015,02,26,00,10,7.40
2015,02,26,00,11,7.40
2015,02,26,00,12,7.40
2015,02,26,00,17,7.40
2015,02,26,00,18,7.40
2015,02,26,00,19,7.40
2015,02,26,00,20,7.40
2015,02,26,00,21,7.40
2015,02,26,00,22,7.40
2015,02,26,00,23,7.40
2015,02,26,00,24,7.40
2015,02,26,00,25,7.40
2015,02,26,00,26,7.40
2015,02,26,00,27,7.40
2015,02,26,00,28,7.40
2015,02,26,00,29,7.40
2015,02,26,00,30,7.40
2015,02,26,00,31,7.40
2015,02,26,00,32,7.40
2015,02,26,00,33,7.40
2015,02,26,00,34,7.40
2015,02,26,00,35,7.40
2015,02,26,00,36,7.40
2015,02,26,00,37,7.40
2015,02,26,00,38,7.40
2015,02,26,00,39,7.40
2015,02,26,00,40,7.40
2015,02,26,00,41,7.40
2015,02,26,00,42,7.40
2015,02,26,00,43,7.40
2015,02,26,00,44,7.40
2015,02,26,00,45,7.40
2015,02,26,00,46,7.40
2015,02,26,00,47,7.40
2015,02,26,00,48,7.40
2015,02,26,00,49,7.40
2015,02,26,00,50,7.40
2015,02,26,00,51,7.40
2015,02,26,00,52,7.40
2015,02,26,00,53,7.40
2015,02,26,00,54,7.40
2015,02,26,00,55,7.40
2015,02,26,00,56,7.40
2015,02,26,00,57,7.40
2015,02,26,00,58,7.40
2015,02,26,00,59,7.40
2015,02,26,01,00,7.40
2015,02,26,01,01,7.40
2015,02,26,01,02,7.40
2015,02,26,01,03,7.40
2015,02,26,01,04,7.40
2015,02,26,01,05,7.40
2015,02,26,01,06,7.40
2015,02,26,01,07,7.40
2015,02,26,01,08,7.40
2015,02,26,01,09,7.40
2015,02,26,01,10,7.40
2015,02,26,01,11,7.40
2015,02,26,01,12,7.40
2015,02,26,01,13,7.40
2015,02,26,01,14,7.40
2015,02,26,01,15,7.30
2015,02,26,01,16,7.30
2015,02,26,01,17,7.30
2015,02,26,01,18,7.30
2015,02,26,01,19,7.30
2015,02,26,01,20,7.30
2015,02,26,01,21,7.30
2015,02,26,01,22,7.30
2015,02,26,01,23,7.30
2015,02,26,01,24,7.30
2015,02,26,01,25,7.30
2015,02,26,01,26,7.30
2015,02,26,01,27,7.30
2015,02,26,01,28,7.30
2015,02,26,01,29,7.30
2015,02,26,01,30,7.30
2015,02,26,01,31,7.30
2015,02,26,01,32,7.30
2015,02,26,01,33,7.30
2015,02,26,01,34,7.30
2015,02,26,01,35,7.30
2015,02,26,01,36,7.30
2015,02,26,01,37,7.30
2015,02,26,01,38,7.30
2015,02,26,01,39,7.30
2015,02,26,01,40,7.30
2015,02,26,01,41,7.30
2015,02,26,01,42,7.30
2015,02,26,01,43,7.30
2015,02,26,01,44,7.30
2015,02,26,01,45,7.30
2015,02,26,01,46,7.30
2015,02,26,01,47,7.30
2015,02,26,01,48,7.30
2015,02,26,01,49,7.30
2015,02,26,01,50,7.30
2015,02,26,01,51,7.30
2015,02,26,01,52,7.30
2015,02,26,01,53,7.30
2015,02,26,01,54,7.30
2015,02,26,01,55,7.30
2015,02,26,01,56,7.30
2015,02,26,01,57,7.30
2015,02,26,01,58,7.30
2015,02,26,01,59,7.30
2015,02,26,02,00,7.30
2015,02,26,02,01,7.30
2015,02,26,02,02,7.30
2015,02,26,02,03,7.30
2015,02,26,02,04,7.30
2015,02,26,02,05,7.30
2015,02,26,02,06,7.30
2015,02,26,02,07,7.30
2015,02,26,02,08,7.30
2015,02,26,02,09,7.30
2015,02,26,02,10,7.30
2015,02,26,02,11,7.30
2015,02,26,02,12,7.30
2015,02,26,02,13,7.30
2015,02,26,02,14,7.30
2015,02,26,02,15,7.30
2015,02,26,02,16,7.30
2015,02,26,02,17,7.30
2015,02,26,02,18,7.30
2015,02,26,02,19,7.30
2015,02,26,02,20,7.30
2015,02,26,02,21,7.30
2015,02,26,02,22,7.30
2015,02,26,02,23,7.30
2015,02,26,02,24,7.30
2015,02,26,02,25,7.30
2015,02,26,02,26,7.30
2015,02,26,02,27,7.30
2015,02,26,02,28,7.30
2015,02,26,02,29,7.30
2015,02,26,02,30,7.30
2015,02,26,02,31,7.30
2015,02,26,02,32,7.30
2015,02,26,02,33,7.30
2015,02,26,02,34,7.30
2015,02,26,02,35,7.30
2015,02,26,02,36,7.30
2015,02,26,02,37,7.30
2015,02,26,02,38,7.30
2015,02,26,02,39,7.30
2015,02,26,02,40,7.30
2015,02,26,02,41,7.30
2015,02,26,02,42,7.30
2015,02,26,02,43,7.30
2015,02,26,02,44,7.30
2015,02,26,02,45,7.30
2015,02,26,02,46,7.30
2015,02,26,02,47,7.30
2015,02,26,02,48,7.30
2015,02,26,02,49,7.30
2015,02,26,02,50,7.30
2015,02,26,02,51,7.30
2015,02,26,02,52,7.30
2015,02,26,02,53,7.30
2015,02,26,02,54,7.30
2015,02,26,02,55,7.30
2015,02,26,02,56,7.30
2015,02,26,02,57,7.30
2015,02,26,02,58,7.30
2015,02,26,02,59,7.30
2015,02,26,03,00,7.30
2015,02,26,03,01,7.30
2015,02,26,03,02,7.30
2015,02,26,03,03,7.30
2015,02,26,03,04,7.30
2015,02,26,03,05,7.30
2015,02,26,03,06,7.30
2015,02,26,03,07,7.30
2015,02,26,03,08,7.30
2015,02,26,03,09,7.30
2015,02,26,03,10,7.30
2015,02,26,03,11,7.30
2015,02,26,03,12,7.30
2015,02,26,03,13,7.30
2015,02,26,03,14,7.30
2015,02,26,03,15,7.30
2015,02,26,03,16,7.30
2015,02,26,03,17,7.30
2015,02,26,03,18,7.30
2015,02,26,03,19,7.30
2015,02,26,03,20,7.30
2015,02,26,03,21,7.30
2015,02,26,03,22,7.30
2015,02,26,03,23,7.30
2015,02,26,03,24,7.30
2015,02,26,03,25,7.30
2015,02,26,03,26,7.30
2015,02,26,03,27,7.30
2015,02,26,03,28,7.30
2015,02,26,03,29,7.30
2015,02,26,03,30,7.30
2015,02,26,03,31,7.30
2015,02,26,03,32,7.30
2015,02,26,03,33,7.30
2015,02,26,03,34,7.30
2015,02,26,03,35,7.30
2015,02,26,03,36,7.30
2015,02,26,03,37,7.30
2015,02,26,03,38,7.30
2015,02,26,03,39,7.30
2015,02,26,03,40,7.30
2015,02,26,03,41,7.30
2015,02,26,03,42,7.30
2015,02,26,03,43,7.30
2015,02,26,03,44,7.30
2015,02,26,03,45,7.30
2015,02,26,03,46,7.30
2015,02,26,03,47,7.30
2015,02,26,03,48,7.30
2015,02,26,03,49,7.30
2015,02,26,03,50,7.30
2015,02,26,03,51,7.30
2015,02,26,03,52,7.30
2015,02,26,03,53,7.30
2015,02,26,03,54,7.30
2015,02,26,03,55,7.20
2015,02,26,03,56,7.20
2015,02,26,03,57,7.30
2015,02,26,03,58,7.20
2015,02,26,03,59,7.20
2015,02,26,04,00,7.20
2015,02,26,04,01,7.20
2015,02,26,04,02,7.20
2015,02,26,04,03,7.20
2015,02,26,04,04,7.20
2015,02,26,04,05,7.20
2015,02,26,04,06,7.20
2015,02,26,04,07,7.20
2015,02,26,04,08,7.20
2015,02,26,04,09,7.20
2015,02,26,04,10,7.20
2015,02,26,04,11,7.20
2015,02,26,04,12,7.20
2015,02,26,04,13,7.20
2015,02,26,04,14,7.20
2015,02,26,04,15,7.20
2015,02,26,04,16,7.20
2015,02,26,04,17,7.20
2015,02,26,04,18,7.20
2015,02,26,04,19,7.20
2015,02,26,04,20,7.20
2015,02,26,04,21,7.20
2015,02,26,04,22,7.20
2015,02,26,04,23,7.20
2015,02,26,04,24,7.20
2015,02,26,04,25,7.20
2015,02,26,04,26,7.20
2015,02,26,04,27,7.20
2015,02,26,04,28,7.20
2015,02,26,04,29,7.20
2015,02,26,04,30,7.20
2015,02,26,04,31,7.20
2015,02,26,04,32,7.20
2015,02,26,04,33,7.20
2015,02,26,04,34,7.20
2015,02,26,04,35,7.20
2015,02,26,04,36,7.20
2015,02,26,04,37,7.20
2015,02,26,04,38,7.20
2015,02,26,04,39,7.20
2015,02,26,04,40,7.20
2015,02,26,04,41,7.20
2015,02,26,04,42,7.20
2015,02,26,04,43,7.20
2015,02,26,04,44,7.20
2015,02,26,04,45,7.20
2015,02,26,04,46,7.20
2015,02,26,04,47,7.20
2015,02,26,04,48,7.20
2015,02,26,04,49,7.20
2015,02,26,04,50,7.20
2015,02,26,04,51,7.20
2015,02,26,04,52,7.20
2015,02,26,04,53,7.20
2015,02,26,04,54,7.20
2015,02,26,04,55,7.20
2015,02,26,04,56,7.20
2015,02,26,04,57,7.10
2015,02,26,04,58,7.20
2015,02,26,04,59,7.20
2015,02,26,05,00,7.20
2015,02,26,05,01,7.10
2015,02,26,05,02,7.10
2015,02,26,05,03,7.10
2015,02,26,05,04,7.10
2015,02,26,05,05,7.10
2015,02,26,05,06,7.10
2015,02,26,05,07,7.10
2015,02,26,05,08,7.10
2015,02,26,05,09,7.10
2015,02,26,05,10,7.10
2015,02,26,05,11,7.10
2015,02,26,05,12,7.10
2015,02,26,05,13,7.10
2015,02,26,05,14,7.10
2015,02,26,05,15,7.10
2015,02,26,05,16,7.10
2015,02,26,05,17,7.10
2015,02,26,05,18,7.10
2015,02,26,05,19,7.10
2015,02,26,05,20,7.10
2015,02,26,05,21,7.10
2015,02,26,05,22,7.10
2015,02,26,05,23,7.10
2015,02,26,05,24,7.10
2015,02,26,05,25,7.10
2015,02,26,05,26,7.10
2015,02,26,05,27,7.10
2015,02,26,05,28,7.10
2015,02,26,05,29,7.10
2015,02,26,05,30,7.10
2015,02,26,05,31,7.10
2015,02,26,05,32,7.10
2015,02,26,05,33,7.10
2015,02,26,05,34,7.10
2015,02,26,05,35,7.10
2015,02,26,05,36,7.10
2015,02,26,05,37,7.10
2015,02,26,05,38,7.10
2015,02,26,05,39,7.10
2015,02,26,05,40,7.10
2015,02,26,05,41,7.10
2015,02,26,05,42,7.10
2015,02,26,05,43,7.10
2015,02,26,05,44,7.10
2015,02,26,05,45,7.10
2015,02,26,05,46,7.10
2015,02,26,05,47,7.10
2015,02,26,05,48,7.10
2015,02,26,05,49,7.10
2015,02,26,05,50,7.10
2015,02,26,05,51,7.10
2015,02,26,05,52,7.10
2015,02,26,05,53,7.10
2015,02,26,05,54,7.10
2015,02,26,05,55,7.10
2015,02,26,05,56,7.10
2015,02,26,05,57,7.10
2015,02,26,05,58,7.10
2015,02,26,05,59,7.10
2015,02,26,06,00,7.00
2015,02,26,06,01,7.00
2015,02,26,06,02,7.00
2015,02,26,06,03,7.00
2015,02,26,06,04,7.00
2015,02,26,06,05,7.00
2015,02,26,06,06,7.00
2015,02,26,06,07,7.00
2015,02,26,06,08,7.00
2015,02,26,06,09,7.00
2015,02,26,06,10,7.00
2015,02,26,06,11,7.00
2015,02,26,06,12,7.00
2015,02,26,06,13,7.00
2015,02,26,06,14,7.00
2015,02,26,06,15,7.00
2015,02,26,06,16,7.00
2015,02,26,06,17,7.00
2015,02,26,06,18,7.00
2015,02,26,06,19,7.00
2015,02,26,06,20,7.00
2015,02,26,06,21,7.00
2015,02,26,06,22,7.00
2015,02,26,06,23,7.00
2015,02,26,06,24,7.00
2015,02,26,06,25,7.00
2015,02,26,06,26,7.00
2015,02,26,06,27,7.00
2015,02,26,06,28,7.00
2015,02,26,06,29,7.00
2015,02,26,06,30,7.00
2015,02,26,06,31,7.00
2015,02,26,06,32,7.00
2015,02,26,06,33,7.00
2015,02,26,06,34,7.00
2015,02,26,06,35,7.00
2015,02,26,06,36,7.00
2015,02,26,06,37,7.00
2015,02,26,06,38,7.00
2015,02,26,06,39,7.00
2015,02,26,06,40,7.00
2015,02,26,06,41,7.00
2015,02,26,06,42,7.00
2015,02,26,06,43,7.00
2015,02,26,06,44,7.00
2015,02,26,06,45,7.00
2015,02,26,06,46,7.00
2015,02,26,06,47,7.00
2015,02,26,06,48,7.00
2015,02,26,06,49,7.00
2015,02,26,06,50,7.00
2015,02,26,06,51,6.90
2015,02,26,06,52,7.00
2015,02,26,06,53,7.00
2015,02,26,06,54,7.00
2015,02,26,06,55,7.00
2015,02,26,06,56,7.00
2015,02,26,06,57,7.00
2015,02,26,06,58,7.00
2015,02,26,06,59,7.00
2015,02,26,07,00,7.00
2015,02,26,07,01,7.00
2015,02,26,07,02,7.00
2015,02,26,07,03,7.00
2015,02,26,07,04,7.00
2015,02,26,07,05,7.00
2015,02,26,07,06,7.00
2015,02,26,07,07,7.00
2015,02,26,07,08,7.00
2015,02,26,07,09,7.00
2015,02,26,07,10,7.00
2015,02,26,07,11,7.00
2015,02,26,07,12,7.00
2015,02,26,07,13,7.00
2015,02,26,07,14,7.00
2015,02,26,07,15,7.00
2015,02,26,07,16,7.00
2015,02,26,07,17,7.00
2015,02,26,07,18,7.00
2015,02,26,07,19,7.00
2015,02,26,07,20,7.00
2015,02,26,07,21,7.00
2015,02,26,07,22,7.00
2015,02,26,07,23,7.00
2015,02,26,07,24,7.00
2015,02,26,07,25,7.00
2015,02,26,07,26,7.00
2015,02,26,07,27,7.00
2015,02,26,07,28,7.00
2015,02,26,07,29,7.00
2015,02,26,07,30,7.00
2015,02,26,07,31,7.00
2015,02,26,07,32,7.00
2015,02,26,07,33,7.00
2015,02,26,07,34,7.00
2015,02,26,07,35,7.00
2015,02,26,07,36,7.00
2015,02,26,07,37,7.00
2015,02,26,07,38,7.00
2015,02,26,07,39,7.00
2015,02,26,07,40,7.00
2015,02,26,07,41,7.00
2015,02,26,07,42,7.00
2015,02,26,07,43,7.00
2015,02,26,07,44,7.00
2015,02,26,07,45,7.00
2015,02,26,07,46,7.00
2015,02,26,07,47,7.00
2015,02,26,07,48,7.00
2015,02,26,07,49,7.00
2015,02,26,07,50,7.00
2015,02,26,07,51,7.00
2015,02,26,07,52,7.00
2015,02,26,07,53,7.10
2015,02,26,07,54,7.10
2015,02,26,07,55,7.10
2015,02,26,07,56,7.10
2015,02,26,07,57,7.10
2015,02,26,07,58,7.10
2015,02,26,07,59,7.10
2015,02,26,08,00,7.10
2015,02,26,08,01,7.10
2015,02,26,08,02,7.10
2015,02,26,08,03,7.10
2015,02,26,08,04,7.10
2015,02,26,08,05,7.10
2015,02,26,08,06,7.10
2015,02,26,08,07,7.10
2015,02,26,08,08,7.10
2015,02,26,08,09,7.10
2015,02,26,08,10,7.10
2015,02,26,08,11,7.10
2015,02,26,08,12,7.20
2015,02,26,08,13,7.20
2015,02,26,08,14,7.20
2015,02,26,08,15,7.20
2015,02,26,08,16,7.20
2015,02,26,08,17,7.20
2015,02,26,08,18,7.20
2015,02,26,08,19,7.20
2015,02,26,08,20,7.20
2015,02,26,08,21,7.20
2015,02,26,08,22,7.20
2015,02,26,08,23,7.20
2015,02,26,08,24,7.30
2015,02,26,08,25,7.30
2015,02,26,08,26,7.30
2015,02,26,08,27,7.30
2015,02,26,08,28,7.30
2015,02,26,08,29,7.30
2015,02,26,08,30,7.30
2015,02,26,08,31,7.30
2015,02,26,08,32,7.30
2015,02,26,08,33,7.30
2015,02,26,08,34,7.30
2015,02,26,08,35,7.30
2015,02,26,08,36,7.30
2015,02,26,08,37,7.30
2015,02,26,08,38,7.30
2015,02,26,08,39,7.30
2015,02,26,08,40,7.40
2015,02,26,08,41,7.40
2015,02,26,08,42,7.40
2015,02,26,08,43,7.40
2015,02,26,08,44,7.40
2015,02,26,08,45,7.40
2015,02,26,08,46,7.40
2015,02,26,08,47,7.40
2015,02,26,08,48,7.50
2015,02,26,08,49,7.50
2015,02,26,08,50,7.50
2015,02,26,08,51,7.50
2015,02,26,08,52,7.50
2015,02,26,08,53,7.50
2015,02,26,08,54,7.50
2015,02,26,08,55,7.50
2015,02,26,08,56,7.50
2015,02,26,08,57,7.50
2015,02,26,08,58,7.50
2015,02,26,08,59,7.50
2015,02,26,09,00,7.50
2015,02,26,09,01,7.50
2015,02,26,09,02,7.50
2015,02,26,09,03,7.50
2015,02,26,09,04,7.50
2015,02,26,09,05,7.50
2015,02,26,09,06,7.50
2015,02,26,09,07,7.50
2015,02,26,09,08,7.50
2015,02,26,09,09,7.60
2015,02,26,09,10,7.60
2015,02,26,09,11,7.60
2015,02,26,09,12,7.60
2015,02,26,09,13,7.60
2015,02,26,09,14,7.60
2015,02,26,09,15,7.60
2015,02,26,09,16,7.60
2015,02,26,09,17,7.60
2015,02,26,09,18,7.60
2015,02,26,09,19,7.60
2015,02,26,09,20,7.60
2015,02,26,09,21,7.60
2015,02,26,09,22,7.60
2015,02,26,09,23,7.60
2015,02,26,09,24,7.60
2015,02,26,09,25,7.60
2015,02,26,09,26,7.60
2015,02,26,09,27,7.60
2015,02,26,09,28,7.60
2015,02,26,09,29,7.60
2015,02,26,09,30,7.70
2015,02,26,09,31,7.70
2015,02,26,09,32,7.70
2015,02,26,09,33,7.70
2015,02,26,09,34,7.70
2015,02,26,09,35,7.70
2015,02,26,09,36,7.70
2015,02,26,09,37,7.70
2015,02,26,09,38,7.70
2015,02,26,09,39,7.70
2015,02,26,09,40,7.70
2015,02,26,09,41,7.80
2015,02,26,09,42,7.80
2015,02,26,09,43,7.80
2015,02,26,09,44,7.80
2015,02,26,09,45,7.80
2015,02,26,09,46,7.80
2015,02,26,09,47,7.80
2015,02,26,09,48,7.80
2015,02,26,09,49,7.80
2015,02,26,09,50,7.80
2015,02,26,09,51,7.80
2015,02,26,09,52,7.90
2015,02,26,09,53,7.90
2015,02,26,09,54,7.90
2015,02,26,09,55,7.90
2015,02,26,09,56,7.90
2015,02,26,09,57,7.90
2015,02,26,09,58,7.90
2015,02,26,09,59,8.00
2015,02,26,16,08,8.30
2015,02,26,16,09,8.30
2015,02,26,16,10,8.30
2015,02,26,16,11,8.30
2015,02,26,16,12,8.30
2015,02,26,16,13,8.30
2015,02,26,16,14,8.30
2015,02,26,16,15,8.30
2015,02,26,16,16,8.30
2015,02,26,16,17,8.30
2015,02,26,16,18,8.30
2015,02,26,16,19,8.30
2015,02,26,16,20,8.30
2015,02,26,16,21,8.30
2015,02,26,16,22,8.30
2015,02,26,16,23,8.30
2015,02,26,16,24,8.30
2015,02,26,16,25,8.30
2015,02,26,16,26,8.30
2015,02,26,16,27,8.30
2015,02,26,16,28,8.30
2015,02,26,16,29,8.30
2015,02,26,16,30,8.30
2015,02,26,16,31,8.30
2015,02,26,16,32,8.30
2015,02,26,16,33,8.30
2015,02,26,16,34,8.30
2015,02,26,16,35,8.30
2015,02,26,16,36,8.30
2015,02,26,16,37,8.30
2015,02,26,16,38,8.30
2015,02,26,16,39,8.30
2015,02,26,16,40,8.30
2015,02,26,16,41,8.30
2015,02,26,16,42,8.30
2015,02,26,16,43,8.30
2015,02,26,16,44,8.30
2015,02,26,16,45,8.20
2015,02,26,16,46,8.20
2015,02,26,16,47,8.20
2015,02,26,16,48,8.20
2015,02,26,16,49,8.20
2015,02,26,16,50,8.20
2015,02,26,16,51,8.20
2015,02,26,16,52,8.20
2015,02,26,16,53,8.20
2015,02,26,16,54,8.20
2015,02,26,16,55,8.20
2015,02,26,16,56,8.20
2015,02,26,16,57,8.20
2015,02,26,16,58,8.20
2015,02,26,16,59,8.20
2015,02,26,17,00,8.20
2015,02,26,17,01,8.20
2015,02,26,17,02,8.20
2015,02,26,17,03,8.20
2015,02,26,17,04,8.20
2015,02,26,17,05,8.20
2015,02,26,17,06,8.20
2015,02,26,17,07,8.20
2015,02,26,17,08,8.20
2015,02,26,17,09,8.20
2015,02,26,17,10,8.20
2015,02,26,17,11,8.30
2015,02,26,17,12,8.30
2015,02,26,17,13,8.20
2015,02,26,17,14,8.20
2015,02,26,17,15,8.20
2015,02,26,17,16,8.20
2015,02,26,17,17,8.30
2015,02,26,17,18,8.30
2015,02,26,17,19,8.30
2015,02,26,17,20,8.30
2015,02,26,17,21,8.20
2015,02,26,17,22,8.20
2015,02,26,17,23,8.20
2015,02,26,17,24,8.20
2015,02,26,17,25,8.20
2015,02,26,17,26,8.30
2015,02,26,17,27,8.30
2015,02,26,17,28,8.30
2015,02,26,17,29,8.30
2015,02,26,17,30,8.30
2015,02,26,17,31,8.20
2015,02,26,17,32,8.20
2015,02,26,17,33,8.20
2015,02,26,17,34,8.20
2015,02,26,17,35,8.20
2015,02,26,17,36,8.20
2015,02,26,17,37,8.10
2015,02,26,17,38,8.10
2015,02,26,17,39,8.10
2015,02,26,17,40,8.10
2015,02,26,17,41,8.10
2015,02,26,17,42,8.00
2015,02,26,17,43,8.00
2015,02,26,17,44,8.00
2015,02,26,17,45,8.00
2015,02,26,17,46,8.00
2015,02,26,17,47,8.00
2015,02,26,17,48,7.90
2015,02,26,17,49,7.90
2015,02,26,17,50,7.90
2015,02,26,17,51,7.90
2015,02,26,17,52,7.90
2015,02,26,17,53,7.90
2015,02,26,17,54,7.90
2015,02,26,17,55,7.90
2015,02,26,17,56,7.90
2015,02,26,17,57,7.90
2015,02,26,17,58,7.90
2015,02,26,17,59,7.80
2015,02,26,18,00,7.80
2015,02,26,18,01,7.80
2015,02,26,18,02,7.80
2015,02,26,18,03,7.80
2015,02,26,18,04,7.80
2015,02,26,18,05,7.80
2015,02,26,18,06,7.80
2015,02,26,18,07,7.80
2015,02,26,18,08,7.80
2015,02,26,18,09,7.80
2015,02,26,18,10,7.80
2015,02,26,18,11,7.80
2015,02,26,18,12,7.80
2015,02,26,18,13,7.80
2015,02,26,18,14,7.80
2015,02,26,18,15,7.80
2015,02,26,18,16,7.80
2015,02,26,18,17,7.80
2015,02,26,18,18,7.80
2015,02,26,18,19,7.80
2015,02,26,18,20,7.80
2015,02,26,18,21,7.80
2015,02,26,18,22,7.80
2015,02,26,18,23,7.80
2015,02,26,18,24,7.80
2015,02,26,18,25,7.80
2015,02,26,18,26,7.80
2015,02,26,18,27,7.80
2015,02,26,18,28,7.80
2015,02,26,18,29,7.80
2015,02,26,18,30,7.80
2015,02,26,18,31,7.80
2015,02,26,18,32,7.80
2015,02,26,18,33,7.80
2015,02,26,18,34,7.70
2015,02,26,18,35,7.70
2015,02,26,18,36,7.70
2015,02,26,18,37,7.70
2015,02,26,18,38,7.70
2015,02,26,18,39,7.70
2015,02,26,18,40,7.80
2015,02,26,18,41,7.80
2015,02,26,18,42,7.80
2015,02,26,18,43,7.80
2015,02,26,18,44,7.80
2015,02,26,18,45,7.80
2015,02,26,18,46,7.80
2015,02,26,18,47,7.80
2015,02,26,18,48,7.80
2015,02,26,18,49,7.80
2015,02,26,18,50,7.80
2015,02,26,18,51,7.80
2015,02,26,18,52,7.80
2015,02,26,18,53,7.80
2015,02,26,18,54,7.80
2015,02,26,18,55,7.80
2015,02,26,18,56,7.80
2015,02,26,18,57,7.80
2015,02,26,18,58,7.80
2015,02,26,18,59,7.80
2015,02,26,19,00,7.80
2015,02,26,19,01,7.80
2015,02,26,19,02,7.80
2015,02,26,19,03,7.80
2015,02,26,19,04,7.80
2015,02,26,19,05,7.80
2015,02,26,19,06,7.80
2015,02,26,19,07,7.80
2015,02,26,19,08,7.80
2015,02,26,19,09,7.80
2015,02,26,19,10,7.80
2015,02,26,19,11,7.80
2015,02,26,19,12,7.80
2015,02,26,19,13,7.80
2015,02,26,19,14,7.80
2015,02,26,19,15,7.80
2015,02,26,19,16,7.80
2015,02,26,19,17,7.80
2015,02,26,19,18,7.80
2015,02,26,19,19,7.80
2015,02,26,19,20,7.80
2015,02,26,19,21,7.80
2015,02,26,19,22,7.80
2015,02,26,19,23,7.80
2015,02,26,19,24,7.80
2015,02,26,19,25,7.80
2015,02,26,19,26,7.80
2015,02,26,19,27,7.80
2015,02,26,19,28,7.80
2015,02,26,19,29,7.90
2015,02,26,19,30,7.90
2015,02,26,19,31,7.80
2015,02,26,19,32,7.80
2015,02,26,19,33,7.90
2015,02,26,19,34,7.90
2015,02,26,19,35,7.90
2015,02,26,19,36,7.90
2015,02,26,19,37,7.90
2015,02,26,19,38,7.90
2015,02,26,19,39,7.90
2015,02,26,19,40,7.90
2015,02,26,19,41,7.90
2015,02,26,19,42,7.90
2015,02,26,19,43,7.90
2015,02,26,19,44,7.90
2015,02,26,19,45,7.90
2015,02,26,19,46,7.90
2015,02,26,19,47,7.90
2015,02,26,19,48,7.90
2015,02,26,19,49,7.90
2015,02,26,19,50,7.90
2015,02,26,19,51,7.90
2015,02,26,19,52,7.90
2015,02,26,19,53,7.90
2015,02,26,19,54,7.80
2015,02,26,19,55,7.80
2015,02,26,19,56,7.80
2015,02,26,19,57,7.80
2015,02,26,19,58,7.80
2015,02,26,19,59,7.80
2015,02,26,20,00,7.80
2015,02,26,20,01,7.80
2015,02,26,20,02,7.80
2015,02,26,20,03,7.80
2015,02,26,20,04,7.80
2015,02,26,20,05,7.80
2015,02,26,20,06,7.80
2015,02,26,20,07,7.80
2015,02,26,20,08,7.80
2015,02,26,20,09,7.80
2015,02,26,20,10,7.80
2015,02,26,20,11,7.80
2015,02,26,20,12,7.80
2015,02,26,20,13,7.70
2015,02,26,20,14,7.70
2015,02,26,20,15,7.70
2015,02,26,20,16,7.70
2015,02,26,20,17,7.70
2015,02,26,20,18,7.70
2015,02,26,20,19,7.70
2015,02,26,20,20,7.70
2015,02,26,20,21,7.70
2015,02,26,20,22,7.70
2015,02,26,20,23,7.70
2015,02,26,20,24,7.70
2015,02,26,20,25,7.70
2015,02,26,20,26,7.70
2015,02,26,20,27,7.70
2015,02,26,20,28,7.70
2015,02,26,20,29,7.70
2015,02,26,20,30,7.70
2015,02,26,20,31,7.70
2015,02,26,20,32,7.60
2015,02,26,20,33,7.60
2015,02,26,20,34,7.60
2015,02,26,20,35,7.60
2015,02,26,20,36,7.60
2015,02,26,20,37,7.60
2015,02,26,20,38,7.60
2015,02,26,20,39,7.60
2015,02,26,20,40,7.60
2015,02,26,20,41,7.50
2015,02,26,20,42,7.50
2015,02,26,20,43,7.50
2015,02,26,20,44,7.50
2015,02,26,20,45,7.50
2015,02,26,20,46,7.50
2015,02,26,20,47,7.50
2015,02,26,20,48,7.50
2015,02,26,20,49,7.50
2015,02,26,20,50,7.40
2015,02,26,20,51,7.40
2015,02,26,20,52,7.40
2015,02,26,20,53,7.40
2015,02,26,20,54,7.40
2015,02,26,20,55,7.40
2015,02,26,20,56,7.40
2015,02,26,20,57,7.40
2015,02,26,20,58,7.40
2015,02,26,20,59,7.40
2015,02,26,21,00,7.40
2015,02,26,21,01,7.40
2015,02,26,21,02,7.40
2015,02,26,21,03,7.40
2015,02,26,21,04,7.40
2015,02,26,21,05,7.40
2015,02,26,21,06,7.40
2015,02,26,21,07,7.40
2015,02,26,21,08,7.40
2015,02,26,21,09,7.40
2015,02,26,21,10,7.40
2015,02,26,21,11,7.40
2015,02,26,21,12,7.40
2015,02,26,21,13,7.30
2015,02,26,21,14,7.40
2015,02,26,21,15,7.40
2015,02,26,21,16,7.40
2015,02,26,21,17,7.40
2015,02,26,21,18,7.30
2015,02,26,21,19,7.30
2015,02,26,21,20,7.30
2015,02,26,21,21,7.30
2015,02,26,21,22,7.30
2015,02,26,21,23,7.30
2015,02,26,21,24,7.30
2015,02,26,21,25,7.30
2015,02,26,21,26,7.30
2015,02,26,21,27,7.30
2015,02,26,21,28,7.30
2015,02,26,21,29,7.30
2015,02,26,21,30,7.30
2015,02,26,21,31,7.30
2015,02,26,21,32,7.30
2015,02,26,21,33,7.30
2015,02,26,21,34,7.30
2015,02,26,21,35,7.30
2015,02,26,21,36,7.30
2015,02,26,21,37,7.30
2015,02,26,21,38,7.30
2015,02,26,21,39,7.30
2015,02,26,21,40,7.30
2015,02,26,21,41,7.30
2015,02,26,21,42,7.30
2015,02,26,21,43,7.30
2015,02,26,21,44,7.30
2015,02,26,21,45,7.30
2015,02,26,21,46,7.30
2015,02,26,21,47,7.30
2015,02,26,21,48,7.30
2015,02,26,21,49,7.30
2015,02,26,21,50,7.30
2015,02,26,21,51,7.30
2015,02,26,21,52,7.30
2015,02,26,21,53,7.30
2015,02,26,21,54,7.30
2015,02,26,21,55,7.30
2015,02,26,21,56,7.30
2015,02,26,21,57,7.30
2015,02,26,21,58,7.30
2015,02,26,21,59,7.30
2015,02,26,22,00,7.20
2015,02,26,22,01,7.20
2015,02,26,22,02,7.20
2015,02,26,22,03,7.20
2015,02,26,22,04,7.20
2015,02,26,22,05,7.20
2015,02,26,22,06,7.20
2015,02,26,22,07,7.20
2015,02,26,22,08,7.20
2015,02,26,22,09,7.20
2015,02,26,22,10,7.20
2015,02,26,22,11,7.20
2015,02,26,22,12,7.20
2015,02,26,22,13,7.20
2015,02,26,22,14,7.20
2015,02,26,22,15,7.20
2015,02,26,22,16,7.20
2015,02,26,22,17,7.20
2015,02,26,22,18,7.20
2015,02,26,22,19,7.20
2015,02,26,22,20,7.20
2015,02,26,22,21,7.20
2015,02,26,22,22,7.20
2015,02,26,22,23,7.20
2015,02,26,22,24,7.20
2015,02,26,22,25,7.20
2015,02,26,22,26,7.20
2015,02,26,22,27,7.20
2015,02,26,22,28,7.20
2015,02,26,22,29,7.10
2015,02,26,22,30,7.10
2015,02,26,22,31,7.10
2015,02,26,22,32,7.10
2015,02,26,22,33,7.10
2015,02,26,22,34,7.10
2015,02,26,22,35,7.10
2015,02,26,22,36,7.10
2015,02,26,22,37,7.10
2015,02,26,22,38,7.10
2015,02,26,22,39,7.10
2015,02,26,22,40,7.10
2015,02,26,22,41,7.10
2015,02,26,22,42,7.10
2015,02,26,22,43,7.10
2015,02,26,22,44,7.10
2015,02,26,22,45,7.10
2015,02,26,22,46,7.10
2015,02,26,22,47,7.10
2015,02,26,22,48,7.10
2015,02,26,22,49,7.10
2015,02,26,22,50,7.10
2015,02,26,22,51,7.10
2015,02,26,22,52,7.10
2015,02,26,22,53,7.10
2015,02,26,22,54,7.10
2015,02,26,22,55,7.10
2015,02,26,22,56,7.10
2015,02,26,22,57,7.10
2015,02,26,22,58,7.10
2015,02,26,22,59,7.10
2015,02,26,23,00,7.10
2015,02,26,23,01,7.10
2015,02,26,23,02,7.10
2015,02,26,23,03,7.10
2015,02,26,23,04,7.10
2015,02,26,23,05,7.10
2015,02,26,23,06,7.10
2015,02,26,23,07,7.10
2015,02,26,23,08,7.10
2015,02,26,23,09,7.10
2015,02,26,23,10,7.10
2015,02,26,23,11,7.10
2015,02,26,23,12,7.10
2015,02,26,23,13,7.10
2015,02,26,23,14,7.10
2015,02,26,23,15,7.10
2015,02,26,23,16,7.10
2015,02,26,23,17,7.10
2015,02,26,23,18,7.10
2015,02,26,23,19,7.10
2015,02,26,23,20,7.10
2015,02,26,23,21,7.10
2015,02,26,23,22,7.10
2015,02,26,23,23,7.10
2015,02,26,23,24,7.10
2015,02,26,23,25,7.10
2015,02,26,23,26,7.10
2015,02,26,23,27,7.10
2015,02,26,23,28,7.10
2015,02,26,23,29,7.10
2015,02,26,23,30,7.10
2015,02,26,23,31,7.10
2015,02,26,23,32,7.10
2015,02,26,23,33,7.10
2015,02,26,23,34,7.10
2015,02,26,23,35,7.10
2015,02,26,23,36,7.10
2015,02,26,23,37,7.10
2015,02,26,23,38,7.10
2015,02,26,23,39,7.10
2015,02,26,23,40,7.10
2015,02,26,23,41,7.10
2015,02,26,23,42,7.10
2015,02,26,23,43,7.10
2015,02,26,23,44,7.10
2015,02,26,23,45,7.10
2015,02,26,23,46,7.10
2015,02,26,23,47,7.10
2015,02,26,23,48,7.10
2015,02,26,23,49,7.10
2015,02,26,23,50,7.10
2015,02,26,23,51,7.00
2015,02,26,23,52,7.00
2015,02,26,23,53,7.00
2015,02,26,23,54,7.00
2015,02,26,23,55,7.00
2015,02,26,23,56,7.00
2015,02,26,23,57,7.00
2015,02,26,23,58,7.00
2015,02,26,23,59,7.00
